CAPE
2 0 0 6 4 0 0 0 0 0 0 9 36 78 61 68 86 183 155 139 135 126
9 6 4 8 4 0 0 0 0 9 13 43 53 42 48 55 112 123 145 145 203 171
3 6 6 8 4 3 1 0 3 12 14 18 35 51 45 35 35 53 105 162 104 89
0 1 3 2 1 1 2 0 0 0 7 10 10 8 16 13 19 41 67 53 44 12
0 0 0 0 0 0 0 0 0 0 0 0 0 0 0 0 18 50 22 15 0 0
0 0 0 0 0 1 1 0 1 4 3 0 0 0 0 3 0 6 0 0 0 0
0 0 0 0 0 0 0 0 0 0 0 0 0 0 1 10 17 11 0 0 0 0
0 0 0 0 0 0 0 0 0 0 0 0 0 0 1 1 0 1 0 1 1 1
2 0 0 0 0 0 0 0 0 0 0 0 0 0 0 0 1 0 1 0 0 1
43 18 1 0 0 0 0 0 0 0 0 0 0 0 0 0 0 0 1 0 1 2
39 18 3 0 0 0 0 0 2 2 2 1 4 0 0 0 0 1 2 4 2 1
46 33 18 26 15 3 1 2 4 5 2 0 0 0 0 0 2 2 5 3 4 1
34 56 46 21 23 0 1 0 0 0 0 0 0 1 1 0 4 4 8 3 2 2
72 40 4 2 0 0 0 0 1 1 4 3 1 5 3 3 3 5 6 4 3 3
CIN
0 0 0 0 -1 0 0 0 0 0 0 -42 -17 -17 -16 -10 -4 -1 -3 -8 -6 -6
0 -1 -1 -1 0 0 0 0 -6 -27 -15 -7 -4 -1 -11 -11 -2 -1 0 0 -1 -6
-2 -1 -1 -1 0 0 0 0 -4 -6 -2 -3 -11 -8 -7 -2 -2 -1 -1 -3 -27 -23
0 -1 -1 0 0 -1 -1 0 0 -1 -3 -9 -9 -4 -2 -2 -2 -3 -16 -24 -24 -57
0 0 -1 0 0 0 0 0 0 0 0 0 0 0 0 0 -33 -23 -73 -71 0 0
0 0 0 0 0 -1 -1 0 -1 -1 -1 0 0 0 0 -36 0 -120 -23 0 0 0
0 0 0 0 0 0 0 0 0 0 0 0 0 0 0 -74 -53 -64 0 0 0 0
0 0 0 0 0 0 0 0 0 0 0 0 0 0 -85 -46 -11 0 0 0 0 0
-546 0 0 0 0 0 0 0 0 0 0 0 0 0 0 0 0 -122 0 0 0 0
-471 -495 -141 0 0 0 0 0 0 0 0 0 0 0 0 0 0 0 0 0 0 0
-483 -473 -355 0 0 0 0 0 -1 -1 -1 -1 -1 0 0 0 0 0 0 0 0 0
-469 -482 -469 -452 -446 -265 -1 0 -1 -1 -1 0 0 0 0 0 0 0 0 0 0 0
-438 -431 -431 -408 -378 0 0 0 0 0 0 0 0 0 0 0 0 0 0 0 0 0
-448 -454 -291 0 0 0 0 0 0 0 0 0 0 0 0 0 0 0 0 0 0 0
Wind_Speed
19 20 23 28 28 26 25 25 28 27 28 32 33 34 30 23 11 14 15 12 14 19
21 23 24 23 25 26 26 23 25 26 26 27 25 28 22 16 14 20 20 21 21 22
20 22 23 21 22 21 21 24 23 23 23 20 18 20 22 23 20 22 21 24 24 23
19 21 21 20 21 22 22 22 23 21 20 20 19 18 18 18 21 21 25 26 26 28
17 18 19 21 20 19 20 21 22 23 22 21 20 20 21 25 29 27 24 29 31 30
17 18 20 22 21 23 22 22 23 23 24 23 22 22 22 25 25 29 29 30 31 28
18 19 19 19 19 19 20 20 21 21 20 22 21 20 19 22 29 32 25 22 18 12
16 17 17 17 17 17 18 18 19 18 18 17 18 18 19 20 30 30 23 20 20 16
14 15 17 17 17 18 18 19 18 19 19 18 17 18 19 19 19 20 20 21 21 21
12 13 14 15 17 18 19 19 19 19 19 19 19 19 19 19 18 21 22 21 21 21
11 11 10 11 13 15 17 19 21 20 19 19 21 20 20 19 21 22 22 21 21 20
13 11 10 10 10 11 13 17 19 21 20 20 22 21 20 19 20 21 21 20 20 19
15 13 11 10 10 13 13 17 19 20 21 22 24 22 19 18 19 20 20 20 18 15
17 15 12 10 12 12 14 15 18 20 21 22 21 20 18 19 20 20 18 18 17 15
Wind_Direction
150 152 158 165 172 173 177 180 182 186 188 193 197 200 201 202 238 276 282 278 286 291
161 162 164 167 170 174 177 179 184 187 189 191 193 198 203 212 261 280 282 283 287 290
165 168 170 168 172 175 179 182 184 187 192 198 203 205 208 213 271 276 280 285 287 289
174 175 175 177 178 182 182 186 189 196 201 205 214 224 245 250 271 272 280 284 286 288
184 185 191 192 193 193 196 197 200 204 211 220 234 250 257 269 276 278 283 285 286 285
195 196 198 199 200 199 203 208 209 212 218 228 244 245 255 267 270 279 287 290 290 284
205 204 204 205 207 209 211 213 215 220 225 226 236 246 249 265 276 281 285 290 298 296
214 211 213 219 222 223 223 222 222 227 227 230 232 245 255 262 277 279 276 280 285 281
224 220 220 228 241 245 243 238 236 235 238 250 255 253 244 262 271 262 269 277 282 287
229 235 238 244 251 253 254 255 249 250 251 251 256 263 258 255 272 269 270 274 278 285
235 240 242 240 242 256 259 260 264 260 255 261 270 272 268 262 275 275 275 276 279 279
239 237 223 229 241 255 267 272 272 275 269 267 275 276 275 276 277 279 281 284 283 283
247 239 233 239 254 274 279 283 285 285 285 284 283 281 274 273 276 277 281 286 286 282
251 256 258 263 271 272 280 286 290 292 294 294 292 287 280 279 280 277 279 281 283 281